[[{"header":{"parameterUnit":"m.s-1","parameterCategory":1,"la1":30.2991,"la2":30.254,"lo1":-89.0895,"lo2":-89.0444,"dy":0.0017,"dx":0.0017,"nx":28,"ny":28,"refTime":"2024-06-14T09:00:00:Z","depth":0,"parameterNumber":2,"parameterNumberName":"U-component_of_WINDS"},"data":[0,0,0,0,0,0,0,0,0,0,0,0,0,0,0,0,0,0,0,0,0,0,0,0,0,0,0,0,0,0,0,0,0,0,0,0,0,0,0,0,0,0,0,0,0,0,0,0,0,0,0,0,0,0,0,0,0,0,0.0628,0.0628,0,0.0633,0.0633,0.0633,0.0609,0.0609,0.0608,0.0607,0.0615,0.0616,0.0617,0,0,0,0,0,0,0,0,0,0,0,0,0,0.0601,0.0602,0.0628,0.0628,0.0628,0.0633,0.0633,0.0633,0.0609,0.0609,0.0608,0.0607,0.0615,0.0616,0.0617,0,0,0,0,0,0,0,0,0,0,0,0,0,0.061,0.0602,0.0628,0.0617,0.0616,0.0633,0.0633,0.0633,0.061,0.0609,0.0608,0.0607,0.0615,0.0616,0.0617,0.0645,0,0,0.0621,0.0621,0,0,0,0,0,0,0,0,0.061,0.0611,0.0618,0.0617,0.0616,0.0619,0.0626,0.0637,0.061,0.0612,0.0607,0.0606,0.0618,0.0619,0.0622,0.0646,0.0646,0.0621,0.0622,0.0622,0.0623,0,0,0,0,0,0,0,0.0609,0.0611,0.063,0.0618,0.0617,0.0613,0.0613,0.0628,0.0621,0.0612,0.061,0.0611,0.0617,0.0621,0.0622,0.0646,0.0621,0.0622,0.0623,0.0623,0.0696,0.0697,0,0,0,0,0,0,0.061,0.0611,0.063,0.063,0.061,0.0614,0.0614,0.0619,0.062,0.0619,0.0612,0.061,0.0619,0.062,0.0622,0.0657,0.0622,0.0624,0.0624,0.0695,0.0696,0.0697,0,0,0,0,0,0,0.0609,0.0611,0.0629,0.062,0.0622,0.0615,0.0622,0.062,0.0624,0.062,0.0619,0.0617,0.0618,0.062,0.064,0.0657,0.0624,0.0625,0.0693,0.0695,0.0697,0.0726,0,0,0,0,0,0,0.0608,0.0611,0.0621,0.062,0.0622,0.0647,0.0623,0.0621,0.0626,0.0623,0.0625,0.0624,0.0618,0.0638,0.0641,0.0658,0.0626,0.0692,0.0694,0.0696,0.0724,0.0729,0.0733,0,0,0,0,0,0.0608,0.063,0.0622,0.0625,0.0634,0.0647,0.0649,0.064,0.0627,0.0638,0.0636,0.0624,0.0654,0.064,0.0644,0.0661,0.0691,0.0693,0.0696,0.0722,0.0728,0.0733,0,0,0,0,0,0,0.0634,0.0629,0.0621,0.0643,0.0646,0.0643,0.0657,0.0647,0.0654,0.0651,0.0641,0.0642,0.0664,0.0664,0.0649,0.069,0.067,0.0674,0.0689,0.0695,0.0699,0.07,0.0627,0,0,0,0,0,0.0643,0.0653,0.0648,0.0668,0.067,0.0663,0.0668,0.0661,0.0664,0.0666,0.0665,0.0669,0.0679,0.0687,0.0696,0.0723,0.0724,0.0737,0.0741,0.0745,0.0749,0.0765,0.0772,0.0706,0.0706,0.0706,0,0,0.066,0.0659,0.0666,0.0674,0.0675,0.0687,0.0664,0.0677,0.0687,0.0668,0.0687,0.0686,0.069,0.0714,0.0725,0.0715,0.0767,0.0748,0.0752,0.0753,0.0769,0.0775,0.0781,0.0708,0.0707,0.0707,0,0,0.0699,0.0698,0.0716,0.0717,0.0719,0.0714,0.0719,0.0718,0.0717,0.0735,0.0722,0.0733,0.0751,0.0755,0.0759,0.0799,0.079,0.0802,0.0828,0.0844,0.0849,0.0854,0.087,0.0876,0.0806,0.0806,0.0806,0,0.0722,0.0738,0.0726,0.0741,0.0745,0.0727,0.0746,0.0748,0.0754,0.0758,0.0746,0.0769,0.077,0.0796,0.0806,0.0809,0.0815,0.0803,0.0849,0.0854,0.0858,0.0874,0.088,0.0808,0.0807,0.0807,0.0807,0,0.0766,0.0778,0.0792,0.0797,0.0803,0.0819,0.0811,0.0819,0.0811,0.0808,0.0828,0.0829,0.0839,0.0844,0.0836,0.0869,0.0863,0.085,0.0832,0.0866,0.0881,0.0887,0.081,0.0809,0.0809,0.0809,0,0,0.0824,0.0821,0.0827,0.083,0.0831,0.084,0.0856,0.0865,0.0873,0.0876,0.0891,0.0907,0.0895,0.09,0.0893,0.0907,0.0942,0.0893,0.0893,0.0904,0.098,0.0992,0.0999,0.0934,0.0935,0.0936,0.0981,0,0.0864,0.089,0.088,0.0908,0.092,0.0903,0.0917,0.092,0.0918,0.0928,0.0925,0.0938,0.092,0.0923,0.0936,0.0935,0.0957,0.0931,0.095,0.0951,0.0952,0.1006,0.1018,0.106,0.0986,0.0987,0.0988,0,0.0914,0.092,0.0949,0.0949,0.0953,0.0966,0.0974,0.0983,0.0987,0.0984,0.099,0.098,0.0997,0.0976,0.1001,0.0983,0.099,0.0991,0.0992,0.0996,0.0973,0.1014,0.1073,0.1081,0.0996,0.0996,0.0995,0,0.0956,0.0971,0.0991,0.0993,0.0992,0.1002,0.1003,0.1005,0.1011,0.1018,0.1023,0.1032,0.1037,0.1045,0.1039,0.1024,0.1066,0.1044,0.1066,0.1067,0.1078,0.1078,0.1142,0.1078,0.1078,0.1078,0.1078,0,0.1003,0.1023,0.101,0.1022,0.1044,0.1032,0.1054,0.1052,0.1054,0.1068,0.1053,0.1066,0.1055,0.1067,0.1062,0.1085,0.1087,0.1087,0.1086,0.109,0.109,0.1096,0.1094,0.1079,0.1079,0.1079,0.1078,0,0.1055,0.1047,0.1068,0.1065,0.1065,0.1081,0.108,0.1092,0.1088,0.1105,0.1108,0.1102,0.1116,0.1109,0.1124,0.1121,0.1151,0.1144,0.115,0.1149,0.1173,0.1172,0.1245,0.1255,0.1182,0.1183,0.1184,0,0.1087,0.1102,0.11,0.1107,0.1109,0.112,0.1127,0.1115,0.1123,0.1128,0.114,0.1152,0.1162,0.1185,0.1183,0.1194,0.119,0.1215,0.1192,0.1196,0.1194,0.1194,0.1196,0.122,0.1221,0.1222,0.1222,0,0.1146,0.1141,0.115,0.1158,0.1166,0.1172,0.1176,0.1183,0.1172,0.1182,0.1195,0.1202,0.1217,0.123,0.124,0.1242,0.1232,0.1229,0.1236,0.1241,0.1245,0.1246,0.1165,0.1228,0.1228,0.1227,0.1227,0.1227,0.1191,0.1203,0.1204,0.1215,0.1217,0.1222,0.1234,0.1231,0.1242,0.1252,0.1245,0.1262,0.1265,0.1278,0.1281,0.1295,0.1285,0.1294,0.1296,0.1299,0.1304,0.124,0.1296,0.1296,0.1296,0.1296,0.1296,0,0.1251,0.1251,0.126,0.1267,0.1276,0.1263,0.1268,0.1277,0.1291,0.1295,0.1304,0.1321,0.1333,0.1332,0.1344,0.1356,0.1351,0.136,0.136,0.1361,0.131,0.1305,0.1363,0.1363,0.1363,0.1363,0.1363,0.1363,0.1284,0.1305,0.13,0.1323,0.1322,0.1338,0.1342,0.1347,0.135,0.1369,0.1379,0.1377,0.1379,0.1392,0.1403,0.1403,0.1409,0.142,0.1418,0.1371,0.1364,0.1358,0.1353,0.1421,0.1421,0.1468,0.1469,0.1469]},{"header":{"parameterUnit":"m.s-1","parameterCategory":1,"la1":30.2991,"la2":30.254,"lo1":-89.0895,"lo2":-89.0444,"dy":0.0017,"dx":0.0017,"nx":28,"ny":28,"refTime":"2024-06-14T09:00:00:Z","depth":0,"parameterNumber":3,"parameterNumberName":"V-component_of_WINDS"},"data":[0,0,0,0,0,0,0,0,0,0,0,0,0,0,0,0,0,0,0,0,0,0,0,0,0,0,0,0,0,0,0,0,0,0,0,0,0,0,0,0,0,0,0,0,0,0,0,0,0,0,0,0,0,0,0,0,0,0,-3.2834,-3.2836,0,-3.2965,-3.2966,-3.2968,-3.2964,-3.2962,-3.296,-3.2958,-3.3089,-3.3094,-3.3099,0,0,0,0,0,0,0,0,0,0,0,0,0,-3.2579,-3.2584,-3.2834,-3.2836,-3.2838,-3.2964,-3.2966,-3.2968,-3.2964,-3.2962,-3.296,-3.2958,-3.3087,-3.3093,-3.31,0,0,0,0,0,0,0,0,0,0,0,0,0,-3.2698,-3.2586,-3.2834,-3.2851,-3.2854,-3.2964,-3.2966,-3.2969,-3.2965,-3.2962,-3.2959,-3.2957,-3.3085,-3.3093,-3.31,-3.3202,0,0,-3.3124,-3.3127,0,0,0,0,0,0,0,0,-3.2691,-3.2707,-3.2847,-3.285,-3.2853,-3.2945,-3.2924,-3.3047,-3.2965,-3.2922,-3.2958,-3.2955,-3.3043,-3.3054,-3.3084,-3.3208,-3.3213,-3.3125,-3.3129,-3.3133,-3.3135,0,0,0,0,0,0,0,-3.2683,-3.2701,-3.2886,-3.2849,-3.2853,-3.2851,-3.2865,-3.2947,-3.2996,-3.2926,-3.2926,-3.2942,-3.3044,-3.3077,-3.3087,-3.3215,-3.3124,-3.3131,-3.3136,-3.3139,-3.3429,-3.3432,0,0,0,0,0,0,-3.2671,-3.2695,-3.2882,-3.289,-3.2764,-3.2858,-3.2873,-3.2918,-3.2995,-3.3004,-3.2944,-3.2941,-3.3065,-3.3078,-3.3092,-3.3216,-3.3133,-3.314,-3.3144,-3.3426,-3.3429,-3.3433,0,0,0,0,0,0,-3.2666,-3.2688,-3.2876,-3.2792,-3.2816,-3.2865,-3.2916,-3.2922,-3.2955,-3.3009,-3.3017,-3.2968,-3.3064,-3.3081,-3.3175,-3.3221,-3.3143,-3.315,-3.3422,-3.3427,-3.3431,-3.3465,0,0,0,0,0,0,-3.2659,-3.2686,-3.2726,-3.2793,-3.2821,-3.2958,-3.2919,-3.2927,-3.2969,-3.2966,-3.3034,-3.3043,-3.3063,-3.3163,-3.3182,-3.323,-3.3156,-3.3418,-3.3424,-3.343,-3.346,-3.3471,-3.3479,0,0,0,0,0,-3.265,-3.2729,-3.2728,-3.275,-3.2871,-3.2961,-3.2976,-3.2999,-3.2972,-3.3012,-3.3047,-3.304,-3.3212,-3.3173,-3.3194,-3.3245,-3.3415,-3.3422,-3.3429,-3.3456,-3.3469,-3.3479,0,0,0,0,0,0,-3.2665,-3.2739,-3.2738,-3.2842,-3.2895,-3.296,-3.3011,-3.3011,-3.3072,-3.3067,-3.3091,-3.3107,-3.32,-3.3232,-3.3186,-3.3347,-3.331,-3.3322,-3.3324,-3.3336,-3.3345,-3.3336,-3.3163,0,0,0,0,0,-3.2681,-3.2748,-3.2808,-3.2894,-3.2921,-3.2961,-3.3001,-3.3014,-3.307,-3.3092,-3.3133,-3.3187,-3.3253,-3.3296,-3.336,-3.3464,-3.3479,-3.351,-3.3519,-3.3527,-3.3537,-3.3595,-3.361,-3.3455,-3.3455,-3.3455,0,0,-3.2713,-3.2762,-3.2803,-3.2899,-3.2941,-3.301,-3.298,-3.3054,-3.3105,-3.3102,-3.3194,-3.3226,-3.3288,-3.3388,-3.3434,-3.3417,-3.3583,-3.3536,-3.3541,-3.3547,-3.3604,-3.3619,-3.3632,-3.346,-3.3459,-3.3458,0,0,-3.2808,-3.2852,-3.2929,-3.2972,-3.3038,-3.3064,-3.3083,-3.3148,-3.317,-3.3262,-3.3262,-3.3322,-3.3436,-3.348,-3.3517,-3.3629,-3.3626,-3.3649,-3.3699,-3.3756,-3.3768,-3.3779,-3.382,-3.3834,-3.3659,-3.3659,-3.3659,0,-3.284,-3.2945,-3.2968,-3.3043,-3.3085,-3.3087,-3.3165,-3.3206,-3.3288,-3.3317,-3.3297,-3.344,-3.3481,-3.3592,-3.362,-3.3649,-3.3671,-3.3642,-3.3764,-3.3776,-3.3786,-3.3826,-3.3841,-3.3661,-3.3661,-3.3661,-3.366,0,-3.2981,-3.3054,-3.3108,-3.3189,-3.3237,-3.3313,-3.3347,-3.3393,-3.3401,-3.343,-3.3524,-3.3574,-3.3648,-3.3675,-3.3683,-3.3787,-3.3775,-3.3759,-3.3723,-3.3803,-3.384,-3.3856,-3.3665,-3.3664,-3.3663,-3.3662,0,0,-3.309,-3.3184,-3.3203,-3.3241,-3.3313,-3.3369,-3.3445,-3.3519,-3.3558,-3.3615,-3.3679,-3.3775,-3.3762,-3.3804,-3.3817,-3.3867,-3.3954,-3.3845,-3.3847,-3.3865,-3.4072,-3.4084,-3.4101,-3.3952,-3.3955,-3.3957,-3.4067,0,-3.3193,-3.3329,-3.3353,-3.3471,-3.3538,-3.3542,-3.3607,-3.3659,-3.3687,-3.3748,-3.3778,-3.3847,-3.3823,-3.3849,-3.3898,-3.3933,-3.3996,-3.3925,-3.4012,-3.4014,-3.3997,-3.4121,-3.4133,-3.4235,-3.4082,-3.4084,-3.4086,0,-3.3332,-3.3394,-3.352,-3.3585,-3.3614,-3.3673,-3.3743,-3.3801,-3.3859,-3.3876,-3.3924,-3.3931,-3.4009,-3.3969,-3.4077,-3.4029,-3.4065,-3.4087,-3.4092,-3.4102,-3.4056,-3.4135,-3.4268,-3.4284,-3.4109,-3.4107,-3.4106,0,-3.34,-3.3515,-3.3605,-3.3637,-3.3714,-3.3756,-3.379,-3.3845,-3.3888,-3.3949,-3.3977,-3.4046,-3.4083,-3.4136,-3.4162,-3.413,-3.4269,-3.423,-3.4285,-3.4285,-3.4315,-3.4313,-3.4458,-3.4337,-3.4337,-3.4336,-3.4336,0,-3.3514,-3.3591,-3.3637,-3.3693,-3.3779,-3.3804,-3.3889,-3.3922,-3.3971,-3.4033,-3.4039,-3.4096,-3.4127,-3.4189,-3.4209,-3.4296,-3.4313,-3.4329,-3.4333,-3.4329,-3.4327,-3.4354,-3.4348,-3.434,-3.4339,-3.4339,-3.4338,0,-3.3605,-3.3639,-3.3738,-3.3803,-3.3821,-3.3882,-3.3938,-3.3992,-3.402,-3.4098,-3.4117,-3.4161,-3.4235,-3.4266,-3.4355,-3.4369,-3.4469,-3.4468,-3.445,-3.4452,-3.4505,-3.45,-3.4673,-3.4698,-3.456,-3.4561,-3.4562,0,-3.3675,-3.3735,-3.3807,-3.385,-3.3885,-3.3953,-3.3998,-3.4025,-3.4071,-3.4142,-3.4187,-3.4261,-3.4321,-3.4438,-3.4478,-3.4546,-3.4548,-3.4603,-3.4558,-3.4552,-3.455,-3.4546,-3.4553,-3.4612,-3.4613,-3.4614,-3.4615,0,-3.3798,-3.3812,-3.3876,-3.3948,-3.4001,-3.4057,-3.4113,-3.4147,-3.4182,-3.4233,-3.4309,-3.4356,-3.4448,-3.4522,-3.4593,-3.4627,-3.4628,-3.4629,-3.4646,-3.4642,-3.463,-3.4639,-3.4474,-3.4625,-3.4624,-3.4624,-3.4623,-3.4623,-3.3882,-3.3935,-3.3995,-3.4067,-3.4111,-3.4163,-3.4218,-3.4253,-3.4317,-3.4395,-3.4407,-3.4488,-3.4545,-3.4641,-3.4677,-3.4741,-3.4727,-3.475,-3.4757,-3.4762,-3.4767,-3.4619,-3.4754,-3.4753,-3.4753,-3.4753,-3.4753,0,-3.4005,-3.4044,-3.411,-3.4188,-3.4244,-3.4241,-3.4302,-3.4349,-3.4421,-3.4474,-3.4534,-3.4621,-3.4693,-3.4738,-3.481,-3.4852,-3.4854,-3.487,-3.4867,-3.4876,-3.4774,-3.4754,-3.4867,-3.4867,-3.4867,-3.4867,-3.4867,-3.4867,-3.4076,-3.4167,-3.4189,-3.4301,-3.4339,-3.442,-3.4455,-3.4503,-3.4546,-3.4644,-3.4703,-3.4733,-3.4783,-3.4859,-3.4924,-3.4935,-3.4962,-3.4979,-3.4989,-3.4894,-3.4882,-3.4871,-3.4852,-3.4984,-3.4984,-3.5085,-3.5086,-3.5087]}]]